ONEWEB-0134 (47280 NORAD) Tracking and Keplerian Element Data

This shows tracking and keplerian element data for the satellite.

Feedback or suggestion? Click here.




ElementValue
Catalog47280
NameONEWEB-0134
Epoch Orbit178
Epoch Day20.91667824
Epoch Year2021
RAAN27.9218
Inclination87.4587
Eccentricity0.0012936
Argument of Perigee147.6356
Mean Anonmoly61.8785
Mean Motion15.07117895
Decay Rate-0.01370908
L11 47280U 20100Y 21020.91667824 -.01370908 00000-0 -99178-1 0 9997
L22 47280 87.4587 27.9218 0012936 147.6356 61.8785 15.07117895 1789

Live tracking and technical data element details for ONEWEB-0134 (NORAD 47280). ONEWEB-0134 can be tracked NOW for your location showing map with azimuth and elevation plus other details from your city location.

Track the satellite on the map from your city or location and see movement details for azimuth, elevation, latitude, longitude, range, height, and movement on the map or in text.







IsCatalogInMostPopularTable: catalog: 47280, numindb: 11
Update: records affected: 1



GetName: 47280 ONEWEB-0134

Hit Count: updated at: Fri, 22 Jan 2021 15:26:17 GMT